Location: Unspecified
(0.0000°N, 0.0000°E)
Time: 10:51:28
(UTC+00:00)

deb r/b Ablestar - Visible Passes

Search period start: 20 July 2024 00:00
Search period end: 30 July 2024 00:00
Orbit: 671 x 780 km, 66.5° (Epoch: 19 July)

Date Brightness Start Highest point End Pass type
(mag) Time Alt. Az. Time Alt. Az. Time Alt. Az.
20 Jul ? 03:22:59 10° NE 03:25:44 15° ENE 03:28:25 10° ESE visible
20 Jul ? 05:03:21 10° NW 05:07:30 28° WSW 05:11:35 10° S visible
21 Jul ? 04:12:17 10° NNW 04:20:49 17° SSE 04:21:57 10° SSE visible
